Date String (YYYY-MM-DD hh:mm:ss) UTC,Instrument flags,Ambient pressure (hPa),Sample flow (lpm),Bypass flow (lpm),Sample temperature (°C),Ambient temperature (°C),ASC tube jacket temperature (°C),LED temperature (°C),Box temperature (°C),Sample RH (%),Span deviation,Mass concentration (μg/m³),Mass concentration (μg/m³),Mass concentration (μg/m³)
DateTimeUTC,F1_M11,P_M11,Q1_M11,Q2_M11,T1_M11,T2_M11,T3_M11,T4_M11,T5_M11,U1_M11,ZSPAN_M11,X2_M11,X0_M11,X1_M11
2021-11-30 23:00:00,,0825.9,5.00,0.00,28.4,27.7,00.0,37.4,30.2,11.3,0000.0,0006.18,0021.75,0004.99
2021-11-30 23:01:00,,0825.6,5.01,0.00,28.4,27.7,00.0,37.4,30.2,11.2,0000.0,0006.11,0021.89,0004.98
2021-11-30 23:02:00,,0825.6,5.00,0.00,28.4,27.7,00.0,37.4,30.2,11.2,0000.0,0006.09,0021.49,0004.97
2021-11-30 23:03:00,,0825.6,4.99,0.00,28.4,27.7,00.0,37.4,30.2,11.2,0000.0,0006.05,0020.85,0004.95
2021-11-30 23:04:00,,0825.6,5.01,0.00,28.4,27.7,00.0,37.4,30.2,10.9,0000.0,0006.02,0020.45,0004.91
2021-11-30 23:05:00,,0825.6,4.99,0.00,28.4,27.7,00.0,37.4,30.2,10.1,0000.0,0005.90,0020.51,0004.81
2021-11-30 23:06:00,,0825.6,5.00,0.00,28.4,27.6,00.0,37.4,30.2,11.0,0000.0,0005.86,0019.53,0004.76
2021-11-30 23:07:00,,0825.6,5.01,0.00,28.4,27.6,00.0,37.4,30.2,11.0,0000.0,0005.82,0018.89,0004.73
2021-11-30 23:08:00,,0825.6,4.99,0.00,28.4,27.6,00.0,37.4,30.2,10.9,0000.0,0005.74,0018.88,0004.69
2021-11-30 23:09:00,,0825.6,5.01,0.00,28.4,27.7,00.0,37.4,30.2,10.9,0000.0,0005.72,0019.61,0004.63
2021-11-30 23:10:00,,0825.5,4.98,0.00,28.4,27.7,00.0,37.4,30.2,11.0,0000.0,0005.67,0019.73,0004.58
2021-11-30 23:11:00,,0825.6,5.00,0.00,28.5,27.7,00.0,37.4,30.2,11.1,0000.0,0005.63,0018.93,0004.55
2021-11-30 23:12:00,,0825.6,5.02,0.00,28.5,27.7,00.0,37.4,30.2,11.1,0000.0,0005.68,0019.11,0004.56
2021-11-30 23:13:00,,0825.5,4.98,0.00,28.5,27.7,00.0,37.4,30.3,11.1,0000.0,0005.68,0018.93,0004.56
2021-11-30 23:14:00,,0825.4,5.01,0.00,28.5,27.7,00.0,37.4,30.3,11.0,0000.0,0005.66,0018.00,0004.54
2021-11-30 23:15:00,,0825.5,5.00,0.00,28.5,27.7,00.0,37.4,30.3,11.0,0000.0,0005.61,0017.41,0004.53
2021-11-30 23:16:00,,0825.5,4.99,0.00,28.5,27.7,00.0,37.4,30.3,11.0,0000.0,0005.67,0016.22,0004.59
2021-11-30 23:17:00,,0825.5,5.00,0.00,28.5,27.7,00.0,37.4,30.3,10.6,0000.0,0005.70,0016.10,0004.58
2021-11-30 23:18:00,,0825.3,4.99,0.00,28.5,27.7,00.0,37.4,30.3,09.7,0000.0,0005.58,0015.98,0004.47
2021-11-30 23:19:00,,0825.3,5.00,0.00,28.5,27.7,00.0,37.4,30.3,09.6,0000.0,0005.47,0014.86,0004.35
2021-11-30 23:20:00,,0825.3,5.01,0.00,28.5,27.7,00.0,37.4,30.2,09.1,0000.0,0005.34,0013.91,0004.24
2021-11-30 23:21:00,,0825.3,5.00,0.00,28.5,27.7,00.0,37.4,30.1,08.8,0000.0,0005.14,0013.66,0004.09
2021-11-30 23:22:00,,0825.3,5.00,0.00,28.4,27.7,00.0,37.4,30.1,09.0,0000.0,0004.93,0012.97,0003.95
2021-11-30 23:23:00,,0825.2,4.99,0.00,28.4,27.6,00.0,37.4,30.1,09.6,0000.0,0004.73,0012.97,0003.82
2021-11-30 23:24:00,,0825.2,5.00,0.00,28.4,27.6,00.0,37.4,30.1,09.9,0000.0,0004.63,0013.93,0003.72
2021-11-30 23:25:00,,0825.1,5.00,0.00,28.4,27.6,00.0,37.4,30.1,09.4,0000.0,0004.55,0013.65,0003.62
2021-11-30 23:26:00,,0825.0,5.01,0.00,28.3,27.6,00.0,37.4,30.0,08.7,0000.0,0004.39,0013.95,0003.47
2021-11-30 23:27:00,,0824.9,4.99,0.00,28.3,27.5,00.0,37.4,30.0,08.7,0000.0,0004.24,0014.23,0003.33
2021-11-30 23:28:00,,0824.9,5.01,0.00,28.3,27.5,00.0,37.4,30.0,08.3,0000.0,0004.06,0014.25,0003.18
2021-11-30 23:29:00,,0824.9,5.00,0.00,28.3,27.5,00.0,37.4,29.9,08.1,0000.0,0003.95,0014.01,0003.07
2021-11-30 23:30:00,,0824.8,5.00,0.00,28.2,27.4,00.0,37.4,29.9,07.7,0000.0,0003.85,0014.06,0002.93
2021-11-30 23:31:00,,0824.8,5.01,0.00,28.2,27.4,00.0,37.3,29.9,07.8,0000.0,0003.78,0014.73,0002.81
2021-11-30 23:32:00,,0824.8,5.00,0.00,28.2,27.4,00.0,37.3,29.9,07.6,0000.0,0003.76,0014.86,0002.71
2021-11-30 23:33:00,,0824.7,5.00,0.00,28.2,27.3,00.0,37.3,29.9,07.1,0000.0,0003.71,0016.60,0002.56
2021-11-30 23:34:00,,0824.7,4.99,0.00,28.2,27.3,00.0,37.3,29.9,06.9,0000.0,0003.60,0016.90,0002.35
2021-11-30 23:35:00,,0824.6,5.00,0.00,28.2,27.3,00.0,37.3,29.8,07.0,0000.0,0003.37,0015.41,0002.07
2021-11-30 23:36:00,,0824.5,5.01,0.00,28.1,27.3,00.0,37.3,29.8,07.1,0000.0,0003.17,0016.14,0001.81
2021-11-30 23:37:00,,0824.6,5.02,0.00,28.1,27.3,00.0,37.3,29.8,07.1,0000.0,0003.06,0015.85,0001.66
2021-11-30 23:38:00,,0824.6,4.98,0.00,28.1,27.3,00.0,37.2,29.8,07.1,0000.0,0002.81,0014.68,0001.49
2021-11-30 23:39:00,,0824.8,5.01,0.00,28.1,27.3,00.0,37.2,29.8,07.2,0000.0,0002.58,0014.09,0001.38
2021-11-30 23:40:00,,0824.8,5.01,0.00,28.1,27.3,00.0,37.2,29.7,07.3,0000.0,0002.43,0014.48,0001.29
2021-11-30 23:41:00,,0824.8,4.99,0.00,28.1,27.3,00.0,37.2,29.7,07.0,0000.0,0002.27,0014.80,0001.24
2021-11-30 23:42:00,,0824.6,5.00,0.00,28.1,27.3,00.0,37.2,29.8,07.0,0000.0,0002.20,0014.05,0001.17
2021-11-30 23:43:00,,0824.5,4.99,0.00,28.1,27.3,00.0,37.2,29.9,07.0,0000.0,0002.06,0014.07,0001.14
2021-11-30 23:44:00,,0824.6,5.00,0.00,28.1,27.3,00.0,37.2,29.9,06.3,0000.0,0002.01,0013.00,0001.13
2021-11-30 23:45:00,,0824.6,5.01,0.00,28.1,27.3,00.0,37.2,29.9,07.1,0000.0,0002.02,0011.86,0001.15
2021-11-30 23:46:00,,0824.5,4.98,0.00,28.2,27.4,00.0,37.2,29.9,07.0,0000.0,0002.09,0012.05,0001.19
2021-11-30 23:47:00,,0824.5,5.02,0.00,28.2,27.4,00.0,37.2,30.0,06.6,0000.0,0002.17,0011.64,0001.23
2021-11-30 23:48:00,,0824.4,4.99,0.00,28.2,27.4,00.0,37.2,30.0,06.1,0000.0,0002.21,0012.63,0001.25
2021-11-30 23:49:00,,0824.6,5.00,0.00,28.2,27.5,00.0,37.2,30.0,05.3,0000.0,0002.29,0014.69,0001.26
2021-11-30 23:50:00,,0824.5,5.00,0.00,28.2,27.5,00.0,37.2,30.0,05.1,0000.0,0002.34,0016.48,0001.21
2021-11-30 23:51:00,,0824.8,5.00,0.00,28.2,27.5,00.0,37.2,30.0,05.4,0000.0,0002.33,0015.96,0001.17
2021-11-30 23:52:00,,0824.6,5.00,0.00,28.2,27.5,00.0,37.2,30.0,05.6,0000.0,0002.38,0015.61,0001.15
2021-11-30 23:53:00,,0824.5,4.99,0.00,28.2,27.5,00.0,37.2,30.0,05.6,0000.0,0002.38,0015.75,0001.16
2021-11-30 23:54:00,,0824.4,5.00,0.00,28.2,27.5,00.0,37.2,30.0,05.6,0000.0,0002.41,0014.76,0001.15
2021-11-30 23:55:00,,0824.4,4.99,0.00,28.3,27.5,00.0,37.2,30.0,05.6,0000.0,0002.39,0013.85,0001.15
2021-11-30 23:56:00,,0824.5,5.01,0.00,28.3,27.5,00.0,37.2,30.0,05.7,0000.0,0002.38,0013.62,0001.12
2021-11-30 23:57:00,,0824.4,5.00,0.00,28.3,27.5,00.0,37.2,30.0,05.3,0000.0,0002.28,0013.63,0001.08
2021-11-30 23:58:00,,0824.3,5.00,0.00,28.3,27.5,00.0,37.2,30.0,04.7,0000.0,0002.14,0014.00,0001.01
2021-11-30 23:59:00,,0824.3,5.00,0.00,28.3,27.5,00.0,37.2,30.0,04.1,0000.0,0001.98,0014.32,0000.93
